Weather in Nifantovo

Russia / Vologda Oblast     59°12′49″N   38°27′55″E
temp.,
°C
wind,
m/s
gust,
m/s
humid.,
%
clouds,
%
prec.,
mm/h
press.,
hPa
HPBL,
m
6 may, thu
thu600:000se228960 0.0 100828
03:00+2ese3687100 0.0 1007193
06:00+4ese489365 0.0 1006277
09:00+5se51194100 0.2 1004467
12:00+12se71280100 0.3 1001904
15:00+15sse91572100 1.3 9981513
18:00+13s9177898 1.3 9961241
21:00+9ssw91689100 4.2 9981179
7 may, fri
fri700:00+6ssw71389100 0.2 1001926
03:00+5ssw6138992 0.2 1002592
06:00+5sw61187100 0.0 1004747
09:00+7sw697697 0.3 10051150
12:00+9sw6106395 0.4 10061618
15:00+10sw7105960 0.9 10071856
18:00+10sw58655 0.6 10081184
21:00+6s39825 0.7 1009172
8 may, sat
sat800:00+4sse4108994 0.0 1010197
03:00+4sse41094100 0.0 1009208
06:00+7sse61482100 0.0 1009604
09:00+8sse91881100 0.7 10071505
12:00+7sse81689100 1.9 10061271
15:00+7sse71592100 4.8 10041263
18:00+7se61394100 3.4 10021237
21:00+7se51195100 4.4 999669
9 may, sun
sun900:00+7se2698100 1.3 997339
03:00+7s3599100 1.9 996317
06:00+4w81397100 3.9 999941
09:00+3w81497100 4.9 1004927
12:00+3w71397100 2.9 10101009
15:00+7wnw61179100 3.7 10141257
18:00+9wnw48635 0.0 10171263
21:00+4w22754 0.0 102020
10 may, mon
mon1000:00+3ssw227673 0.0 102224
03:00+2sw358470 0.0 102478
06:00+4ssw498291 0.0 1025234
09:00+9ssw596592 0.0 1025584
12:00+12sw71061100 0.0 10251646
15:00+10sw61075100 0.1 1026806
18:00+12sw597569 0.0 1025669
21:00+8s4992100 0.0 1026171